This is the latest recevied weather packets stored in our database for station/object EA1GHG-11. If no packets are shown the sender has not sent any weather packets the latest 10 day(s).
| Time | Temp. | Humidity | Pressure | Rain* | Wind** | Luminosity | Snow |
|---|---|---|---|---|---|---|---|
| 1777631507 | 20.56° C | 100% | 1022.6 hPa | - | - | - | - |
| 1777630007 | 20° C | 100% | 1022.6 hPa | - | - | - | - |
| 1777628507 | 18.89° C | 100% | 1022.5 hPa | - | - | - | - |
| 1777627007 | 17.22° C | 100% | 1022.6 hPa | - | - | - | - |
| 1777625507 | 16.67° C | 100% | 1022.6 hPa | - | - | - | - |
| 1777624007 | 17.22° C | 100% | 1022.6 hPa | - | - | - | - |
| 1777622507 | 15.56° C | 100% | 1022.5 hPa | - | - | - | - |
| 1777621007 | 14.44° C | 100% | 1022.6 hPa | - | - | - | - |
| 1777619507 | 13.89° C | 100% | 1022.6 hPa | - | - | - | - |
| 1777618006 | 14.44° C | 100% | 1022.6 hPa | - | - | - | - |
| 1777616506 | 13.33° C | 100% | 1022.4 hPa | - | - | - | - |
| 1777615907 | 13.33° C | 100% | 1022.4 hPa | - | - | - | - |
| 1777614407 | 12.22° C | 100% | 1022.3 hPa | - | - | - | - |
| 1777612907 | 11.11° C | 100% | 1022.4 hPa | - | - | - | - |
| 1777611407 | 11.67° C | 100% | 1022.4 hPa | - | - | - | - |
| 1777609907 | 12.22° C | 100% | 1022.3 hPa | - | - | - | - |
| 1777608407 | 11.67° C | 100% | 1022.4 hPa | - | - | - | - |
| 1777606907 | 11.67° C | 100% | 1022.4 hPa | - | - | - | - |
| 1777605406 | 11.11° C | 100% | 1022.4 hPa | - | - | - | - |
| 1777603906 | 11.67° C | 100% | 1022.5 hPa | - | - | - | - |
| 1777602406 | 12.22° C | 100% | 1022.5 hPa | - | - | - | - |
| 1777600906 | 11.67° C | 100% | 1022.6 hPa | - | - | - | - |
| 1777599406 | 11.67° C | 100% | 1022.8 hPa | - | - | - | - |
| 1777597906 | 12.22° C | 100% | 1023.1 hPa | - | - | - | - |
| 1777596406 | 12.78° C | 100% | 1023.1 hPa | - | - | - | - |
* Rain since midnight (hover to see other rain measurements)
** Current wind speed in m/s (hover to see current wind gust speed)